owner,sensor,date,latitude,longitude,vertical_datum,wind_speed,wind_to_direction,wind_speed_of_gust,qcFlag 
TABS,ioos:station:wmo:42045:1,2006-02-04T19:39:00Z,26.2168,-96.4998,4.0,3.439098719,296.788508,6.29,'11111222,11111222,11111222' 
TABS,ioos:station:wmo:42045:1,2006-02-04T20:09:00Z,26.2168,-96.4998,4.0,2.430905181,275.4291462,4.54,'11111222,11111222,11111222' 
TABS,ioos:station:wmo:42045:1,2006-02-04T20:39:00Z,26.2168,-96.4998,4.0,2.202044505,264.0046272,4.99,'11111222,11111222,11111222' 
TABS,ioos:station:wmo:42045:1,2006-02-04T21:09:00Z,26.2168,-96.4998,4.0,1.794937325,241.0074721,4.69,'11111222,11111222,11111222' 
TABS,ioos:station:wmo:42045:1,2006-02-04T21:39:00Z,26.2168,-96.4998,4.0,1.653602129,237.84778,3.75,'11111222,11111222,11111222' 
TABS,ioos:station:wmo:42045:1,2006-02-04T22:09:00Z,26.2168,-96.4998,4.0,1.203411816,227.6943832,3.67,'11111222,11111222,11111222' 
TABS,ioos:station:wmo:42045:1,2006-02-04T22:39:00Z,26.2168,-96.4998,4.0,0.784920378,235.9051018,3.5,'11111222,11111222,11111222' 
TABS,ioos:station:wmo:42045:1,2006-02-04T23:09:00Z,26.2168,-96.4998,4.0,1.14280357,147.1445653,3.1,'11111222,11111222,11111222' 
TABS,ioos:station:wmo:42045:1,2006-02-04T23:39:00Z,26.2168,-96.4998,4.0,2.043526364,176.6337577,4.51,'11111222,11111222,11111222' 
TABS,ioos:station:wmo:42045:1,2006-02-05T00:09:00Z,26.2168,-96.4998,4.0,2.068260138,156.0377775,4.04,'11111222,11111222,11111222' 
TABS,ioos:station:wmo:42045:1,2006-02-05T00:39:00Z,26.2168,-96.4998,4.0,2.711549373,157.217858,4.63,'11111222,11111222,11111222' 
TABS,ioos:station:wmo:42045:1,2006-02-05T01:09:00Z,26.2168,-96.4998,4.0,3.443835072,154.1792789,5.76,'11111222,11111222,11111222' 
TABS,ioos:station:wmo:42045:1,2006-02-05T01:39:00Z,26.2168,-96.4998,4.0,3.766284641,161.4209835,5.97,'11111222,11111222,11111222' 
TABS,ioos:station:wmo:42045:1,2006-02-05T02:09:00Z,26.2168,-96.4998,4.0,4.191479452,160.0521867,6.29,'11111222,11111222,11111222' 
TABS,ioos:station:wmo:42045:1,2006-02-05T02:39:00Z,26.2168,-96.4998,4.0,4.438783617,166.715375,7.02,'11111222,11111222,11111222' 
TABS,ioos:station:wmo:42045:1,2006-02-05T03:09:00Z,26.2168,-96.4998,4.0,7.290850431,185.2728902,10.27,'11111222,11111222,11111222' 
TABS,ioos:station:wmo:42045:1,2006-02-05T03:39:00Z,26.2168,-96.4998,4.0,5.090117877,171.1856049,7.76,'11111222,11111222,11111222' 
TABS,ioos:station:wmo:42045:1,2006-02-05T04:09:00Z,26.2168,-96.4998,4.0,5.120976469,178.8812971,8.4,'11111222,11111222,11111222' 
TABS,ioos:station:wmo:42045:1,2006-02-05T04:39:00Z,26.2168,-96.4998,4.0,5.850008547,179.9022693,8.89,'11111222,11111222,11111222' 
TABS,ioos:station:wmo:42045:1,2006-02-05T05:09:00Z,26.2168,-96.4998,4.0,6.299730153,176.8153428,8.97,'11111222,11111222,11111222' 
TABS,ioos:station:wmo:42045:1,2006-02-05T05:39:00Z,26.2168,-96.4998,4.0,6.829070215,184.2830789,10.78,'11111222,11111222,11111222' 
TABS,ioos:station:wmo:42045:1,2006-02-05T06:09:00Z,26.2168,-96.4998,4.0,7.16118007,181.0403802,10.14,'11111222,11111222,11111222' 
TABS,ioos:station:wmo:42045:1,2006-02-05T06:39:00Z,26.2168,-96.4998,4.0,6.940028818,180.1653271,9.93,'11111222,11111222,11111222' 
TABS,ioos:station:wmo:42045:1,2006-02-05T07:09:00Z,26.2168,-96.4998,4.0,7.265018926,177.8703622,11.24,'11111222,11111222,11111222' 
TABS,ioos:station:wmo:42045:1,2006-02-05T07:39:00Z,26.2168,-96.4998,4.0,7.646829408,184.8011753,11.94,'11111222,11111222,11111222' 
TABS,ioos:station:wmo:42045:1,2006-02-05T08:09:00Z,26.2168,-96.4998,4.0,8.410719351,184.0227221,12.37,'11111222,11111222,11111222' 
TABS,ioos:station:wmo:42045:1,2006-02-05T08:39:00Z,26.2168,-96.4998,4.0,8.23310391,189.5082738,12.41,'11111222,11111222,11111222' 
TABS,ioos:station:wmo:42045:1,2006-02-05T09:09:00Z,26.2168,-96.4998,4.0,8.524441331,192.8789261,12.02,'11111222,11111222,11111222' 
TABS,ioos:station:wmo:42045:1,2006-02-05T09:39:00Z,26.2168,-96.4998,4.0,8.148251346,190.1792468,12.33,'11111222,11111222,11111222' 
TABS,ioos:station:wmo:42045:1,2006-02-05T10:09:00Z,26.2168,-96.4998,4.0,8.03886808,187.5053485,11.45,'11111222,11111222,11111222' 
TABS,ioos:station:wmo:42045:1,2006-02-05T10:39:00Z,26.2168,-96.4998,4.0,7.843500494,189.3184011,11.64,'11111222,11111222,11111222' 
TABS,ioos:station:wmo:42045:1,2006-02-05T11:09:00Z,26.2168,-96.4998,4.0,8.727983731,183.6789085,12.95,'11111222,11111222,11111222' 
TABS,ioos:station:wmo:42045:1,2006-02-05T11:39:00Z,26.2168,-96.4998,4.0,8.909904601,182.7020454,13.06,'11111222,11111222,11111222' 
TABS,ioos:station:wmo:42045:1,2006-02-05T12:09:00Z,26.2168,-96.4998,4.0,8.953887424,188.7366222,13.02,'11111222,11111222,11111222' 
TABS,ioos:station:wmo:42045:1,2006-02-05T12:39:00Z,26.2168,-96.4998,4.0,8.98167579,188.1934444,12.85,'11111222,11111222,11111222' 
TABS,ioos:station:wmo:42045:1,2006-02-05T13:09:00Z,26.2168,-96.4998,4.0,8.542113322,181.2747277,12.17,'11111222,11111222,11111222' 
TABS,ioos:station:wmo:42045:1,2006-02-05T13:39:00Z,26.2168,-96.4998,4.0,9.123157348,181.5076427,13.33,'11111222,11111222,11111222' 
TABS,ioos:station:wmo:42045:1,2006-02-05T14:09:00Z,26.2168,-96.4998,4.0,9.235691636,187.3406642,13.73,'11111222,11111222,11111222' 
TABS,ioos:station:wmo:42045:1,2006-02-05T14:39:00Z,26.2168,-96.4998,4.0,9.551554847,185.3466911,13.38,'11111222,11111222,11111222' 
TABS,ioos:station:wmo:42045:1,2006-02-05T15:09:00Z,26.2168,-96.4998,4.0,9.872031199,185.2892091,14.47,'11111222,11111222,11111222' 
TABS,ioos:station:wmo:42045:1,2006-02-05T15:39:00Z,26.2168,-96.4998,4.0,9.815711895,184.1481995,15.03,'11111222,11111222,11111222' 
TABS,ioos:station:wmo:42045:1,2006-02-05T16:09:00Z,26.2168,-96.4998,4.0,9.960923652,186.3403874,15.9,'11111222,11111222,11111222' 
TABS,ioos:station:wmo:42045:1,2006-02-05T16:39:00Z,26.2168,-96.4998,4.0,10.13826415,184.9797312,17.4,'11111222,11111222,11111222' 
TABS,ioos:station:wmo:42045:1,2006-02-05T17:09:00Z,26.2168,-96.4998,4.0,9.348545341,186.9427648,15.07,'11111222,11111222,11111222' 
TABS,ioos:station:wmo:42045:1,2006-02-05T17:39:00Z,26.2168,-96.4998,4.0,10.57631788,185.9156284,15.42,'11111222,11111222,11111222' 
TABS,ioos:station:wmo:42045:1,2006-02-05T18:09:00Z,26.2168,-96.4998,4.0,10.29466852,181.7257964,14.95,'11111222,11111222,11111222' 
TABS,ioos:station:wmo:42045:1,2006-02-05T18:39:00Z,26.2168,-96.4998,4.0,10.1111127,186.3028411,15.08,'11111222,11111222,11111222' 
TABS,ioos:station:wmo:42045:1,2006-02-05T19:09:00Z,26.2168,-96.4998,4.0,9.809485206,184.4437027,15.96,'11111222,11111222,11111222' 
TABS,ioos:station:wmo:42045:1,2006-02-05T19:39:00Z,26.2168,-96.4998,4.0,10.55038388,180.4889766,15.45,'11111222,11111222,11111222' 
TABS,ioos:station:wmo:42045:1,2006-02-05T20:09:00Z,26.2168,-96.4998,4.0,11.07130525,180.8800202,16.57,'11111222,11111222,11111222' 
TABS,ioos:station:wmo:42045:1,2006-02-05T20:39:00Z,26.2168,-96.4998,4.0,10.30031067,179.5552047,16.94,'11111222,11111222,11111222' 
TABS,ioos:station:wmo:42045:1,2006-02-05T21:09:00Z,26.2168,-96.4998,4.0,11.20004018,180.1536806,16.59,'11111222,11111222,11111222' 
TABS,ioos:station:wmo:42045:1,2006-02-05T21:39:00Z,26.2168,-96.4998,4.0,11.17257804,177.2812236,17.33,'11111222,11111222,11111222' 
TABS,ioos:station:wmo:42045:1,2006-02-05T22:09:00Z,26.2168,-96.4998,4.0,10.97623797,178.0684552,17.22,'11111222,11111222,11111222' 
TABS,ioos:station:wmo:42045:1,2006-02-05T22:39:00Z,26.2168,-96.4998,4.0,11.2836386,176.2908526,16.87,'11111222,11111222,11111222' 
TABS,ioos:station:wmo:42045:1,2006-02-05T23:09:00Z,26.2168,-96.4998,4.0,10.26639664,176.7615691,15.93,'11111222,11111222,11111222' 
TABS,ioos:station:wmo:42045:1,2006-02-05T23:39:00Z,26.2168,-96.4998,4.0,11.03022212,179.6365984,16.66,'11111222,11111222,11111222' 
TABS,ioos:station:wmo:42045:1,2006-02-06T00:09:00Z,26.2168,-96.4998,4.0,10.67000469,180.0539083,18.28,'11111222,11111222,11111222' 
TABS,ioos:station:wmo:42045:1,2006-02-06T00:39:00Z,26.2168,-96.4998,4.0,10.94000457,180.0525831,16.7,'11111222,11111222,11111222' 
TABS,ioos:station:wmo:42045:1,2006-02-06T01:09:00Z,26.2168,-96.4998,4.0,10.97050591,182.5079063,16.86,'11111222,11111222,11111222' 
TABS,ioos:station:wmo:42045:1,2006-02-06T01:39:00Z,26.2168,-96.4998,4.0,11.28044325,180.5081373,16.53,'11111222,11111222,11111222' 
TABS,ioos:station:wmo:42045:1,2006-02-06T02:09:00Z,26.2168,-96.4998,4.0,10.80037499,179.5227578,16.21,'11111222,11111222,11111222' 
TABS,ioos:station:wmo:42045:1,2006-02-06T02:39:00Z,26.2168,-96.4998,4.0,10.34773405,182.2155718,15.37,'11111222,11111222,11111222' 
TABS,ioos:station:wmo:42045:1,2006-02-06T03:09:00Z,26.2168,-96.4998,4.0,10.19688678,184.1618809,16.77,'11111222,11111222,11111222' 
TABS,ioos:station:wmo:42045:1,2006-02-06T03:39:00Z,26.2168,-96.4998,4.0,10.1954941,184.7825086,15.64,'11111222,11111222,11111222' 
TABS,ioos:station:wmo:42045:1,2006-02-06T04:09:00Z,26.2168,-96.4998,4.0,11.18955316,184.819121,18.14,'11111222,11111222,11111222' 
TABS,ioos:station:wmo:42045:1,2006-02-06T04:39:00Z,26.2168,-96.4998,4.0,10.72295202,184.4931619,16.52,'11111222,11111222,11111222' 
TABS,ioos:station:wmo:42045:1,2006-02-06T05:09:00Z,26.2168,-96.4998,4.0,11.59973276,184.1034135,18.1,'11111222,11111222,11111222' 
TABS,ioos:station:wmo:42045:1,2006-02-06T05:39:00Z,26.2168,-96.4998,4.0,10.06771573,190.47301,15.12,'11111222,11111222,11111222' 
TABS,ioos:station:wmo:42045:1,2006-02-06T06:09:00Z,26.2168,-96.4998,4.0,10.55509356,191.0333281,16.43,'11111222,11111222,11111222' 
TABS,ioos:station:wmo:42045:1,2006-02-06T06:39:00Z,26.2168,-96.4998,4.0,9.772307813,187.8815444,16.44,'11111222,11111222,11111222' 
TABS,ioos:station:wmo:42045:1,2006-02-06T07:09:00Z,26.2168,-96.4998,4.0,8.984236195,190.972425,13.68,'11111222,11111222,11111222' 
TABS,ioos:station:wmo:42045:1,2006-02-06T07:39:00Z,26.2168,-96.4998,4.0,9.730493307,185.8396891,14.71,'11111222,11111222,11111222' 
TABS,ioos:station:wmo:42045:1,2006-02-06T08:09:00Z,26.2168,-96.4998,4.0,8.147944526,186.8373824,13.14,'11111222,11111222,11111222' 
TABS,ioos:station:wmo:42045:1,2006-02-06T08:39:00Z,26.2168,-96.4998,4.0,8.400535697,188.4196633,13.14,'11111222,11111222,11111222' 
TABS,ioos:station:wmo:42045:1,2006-02-06T09:09:00Z,26.2168,-96.4998,4.0,8.650346814,186.7719435,14.3,'11111222,11111222,11111222' 
TABS,ioos:station:wmo:42045:1,2006-02-06T09:39:00Z,26.2168,-96.4998,4.0,7.057733347,184.062682,12.94,'11111222,11111222,11111222' 
TABS,ioos:station:wmo:42045:1,2006-02-06T10:09:00Z,26.2168,-96.4998,4.0,6.993854445,176.3932232,11.22,'11111222,11111222,11111222' 
TABS,ioos:station:wmo:42045:1,2006-02-06T10:39:00Z,26.2168,-96.4998,4.0,7.992759223,178.494664,13.86,'11111222,11111222,11111222' 
TABS,ioos:station:wmo:42045:1,2006-02-06T11:09:00Z,26.2168,-96.4998,4.0,7.230442587,180.6341613,12.16,'11111222,11111222,11111222' 
TABS,ioos:station:wmo:42045:1,2006-02-06T11:39:00Z,26.2168,-96.4998,4.0,6.470123646,179.6459915,12.05,'11111222,11111222,11111222' 
TABS,ioos:station:wmo:42045:1,2006-02-06T12:09:00Z,26.2168,-96.4998,4.0,5.600946349,176.4175034,9.24,'11111222,11111222,11111222' 
TABS,ioos:station:wmo:42045:1,2006-02-06T12:39:00Z,26.2168,-96.4998,4.0,7.060177052,179.5944407,12.85,'11111222,11111222,11111222' 
TABS,ioos:station:wmo:42045:1,2006-02-06T13:09:00Z,26.2168,-96.4998,4.0,6.036033466,185.3235358,10.05,'11111222,11111222,11111222' 
TABS,ioos:station:wmo:42045:1,2006-02-06T13:39:00Z,26.2168,-96.4998,4.0,7.1205056,184.349534,11.4,'11111222,11111222,11111222' 
TABS,ioos:station:wmo:42045:1,2006-02-06T14:09:00Z,26.2168,-96.4998,4.0,6.3417742,181.3555328,10.45,'11111222,11111222,11111222' 
TABS,ioos:station:wmo:42045:1,2006-02-06T14:39:00Z,26.2168,-96.4998,4.0,6.000866604,184.7796992,9.65,'11111222,11111222,11111222' 
TABS,ioos:station:wmo:42045:1,2006-02-06T15:09:00Z,26.2168,-96.4998,4.0,4.541035124,186.7026605,9.16,'11111222,11111222,11111222' 
TABS,ioos:station:wmo:42045:1,2006-02-06T15:39:00Z,26.2168,-96.4998,4.0,4.029553325,188.9949922,7.69,'11111222,11111222,11111222' 
TABS,ioos:station:wmo:42045:1,2006-02-06T16:09:00Z,26.2168,-96.4998,4.0,2.970269348,269.2283881,6.53,'11111222,11111222,11111222' 
TABS,ioos:station:wmo:42045:1,2006-02-06T16:39:00Z,26.2168,-96.4998,4.0,1.688668114,251.3505049,5.5,'11111222,11111222,11111222' 
TABS,ioos:station:wmo:42045:1,2006-02-06T17:09:00Z,26.2168,-96.4998,4.0,1.505257453,198.1943796,5.25,'11111222,11111222,11111222' 
TABS,ioos:station:wmo:42045:1,2006-02-06T17:39:00Z,26.2168,-96.4998,4.0,1.118257573,218.0997932,5.21,'11111222,11111222,11111222' 
TABS,ioos:station:wmo:42045:1,2006-02-06T18:09:00Z,26.2168,-96.4998,4.0,2.55785066,336.7424282,7.35,'11111222,11111222,11111222' 
TABS,ioos:station:wmo:42045:1,2006-02-06T18:39:00Z,26.2168,-96.4998,4.0,3.197811752,338.7307794,8.25,'11111222,11111222,11111222' 
TABS,ioos:station:wmo:42045:1,2006-02-06T19:09:00Z,26.2168,-96.4998,4.0,3.144980127,350.2978854,6.99,'11111222,11111222,11111222' 
TABS,ioos:station:wmo:42045:1,2006-02-06T19:39:00Z,26.2168,-96.4998,4.0,5.680721785,5.961268253,11.31,'11111222,11111222,11111222' 
TABS,ioos:station:wmo:42045:1,2006-02-06T20:09:00Z,26.2168,-96.4998,4.0,6.683210306,10.08223967,11.06,'11111222,11111222,11111222' 
TABS,ioos:station:wmo:42045:1,2006-02-06T20:39:00Z,26.2168,-96.4998,4.0,7.557909764,3.944966545,12.9,'11111222,11111222,11111222' 
TABS,ioos:station:wmo:42045:1,2006-02-06T21:09:00Z,26.2168,-96.4998,4.0,9.170474361,11.06463442,14.45,'11111222,11111222,11111222' 
TABS,ioos:station:wmo:42045:1,2006-02-06T21:39:00Z,26.2168,-96.4998,4.0,9.581424737,5.329554358,14.35,'11111222,11111222,11111222' 
TABS,ioos:station:wmo:42045:1,2006-02-06T22:09:00Z,26.2168,-96.4998,4.0,12.23725868,7.937850753,18.98,'11111222,11111222,11111222' 
TABS,ioos:station:wmo:42045:1,2006-02-06T22:39:00Z,26.2168,-96.4998,4.0,11.89581859,13.01964653,18.87,'11111222,11111222,11111222' 
TABS,ioos:station:wmo:42045:1,2006-02-06T23:09:00Z,26.2168,-96.4998,4.0,11.38880591,11.753686,16.95,'11111222,11111222,11111222' 
TABS,ioos:station:wmo:42045:1,2006-02-06T23:39:00Z,26.2168,-96.4998,4.0,10.17829062,7.110824899,15.89,'11111222,11111222,11111222' 
TABS,ioos:station:wmo:42045:1,2006-02-07T00:09:00Z,26.2168,-96.4998,4.0,9.790183859,5.803542363,15.47,'11111222,11111222,11111222' 
TABS,ioos:station:wmo:42045:1,2006-02-07T00:39:00Z,26.2168,-96.4998,4.0,10.39929325,4.301294656,16.59,'11111222,11111222,11111222' 
TABS,ioos:station:wmo:42045:1,2006-02-07T01:09:00Z,26.2168,-96.4998,4.0,10.28665154,4.125080682,17.62,'11111222,11111222,11111222' 
TABS,ioos:station:wmo:42045:1,2006-02-07T01:39:00Z,26.2168,-96.4998,4.0,10.61715593,9.87019664,16.76,'11111222,11111222,11111222' 
TABS,ioos:station:wmo:42045:1,2006-02-07T02:09:00Z,26.2168,-96.4998,4.0,10.90004128,0.15748358,17.63,'11111222,11111222,11111222' 
TABS,ioos:station:wmo:42045:1,2006-02-07T02:39:00Z,26.2168,-96.4998,4.0,10.19734279,6.588159171,14.83,'11111222,11111222,11111222' 
TABS,ioos:station:wmo:42045:1,2006-02-07T03:09:00Z,26.2168,-96.4998,4.0,10.5459945,4.023463922,15.61,'11111222,11111222,11111222' 
TABS,ioos:station:wmo:42045:1,2006-02-07T03:39:00Z,26.2168,-96.4998,4.0,10.19217837,5.799867478,16.81,'11111222,11111222,11111222' 
TABS,ioos:station:wmo:42045:1,2006-02-07T04:09:00Z,26.2168,-96.4998,4.0,11.80491847,11.92841499,17.96,'11111222,11111222,11111222' 
TABS,ioos:station:wmo:42045:1,2006-02-07T04:39:00Z,26.2168,-96.4998,4.0,12.36932496,16.00241197,19.81,'11111222,11111222,11111222' 
TABS,ioos:station:wmo:42045:1,2006-02-07T05:09:00Z,26.2168,-96.4998,4.0,10.65024413,12.69195259,16.68,'11111222,11111222,11111222' 
TABS,ioos:station:wmo:42045:1,2006-02-07T05:39:00Z,26.2168,-96.4998,4.0,9.963744276,6.975006356,15.76,'11111222,11111222,11111222' 
TABS,ioos:station:wmo:42045:1,2006-02-07T06:09:00Z,26.2168,-96.4998,4.0,12.23769995,15.01260045,18.16,'11111222,11111222,11111222' 
TABS,ioos:station:wmo:42045:1,2006-02-07T06:39:00Z,26.2168,-96.4998,4.0,10.37177902,5.144192658,15.63,'11111222,11111222,11111222' 
TABS,ioos:station:wmo:42045:1,2006-02-07T07:09:00Z,26.2168,-96.4998,4.0,11.86310246,15.34806369,18.47,'11111222,11111222,11111222' 
TABS,ioos:station:wmo:42045:1,2006-02-07T07:39:00Z,26.2168,-96.4998,4.0,12.7568413,12.17294102,17.92,'11111222,11111222,11111222' 
TABS,ioos:station:wmo:42045:1,2006-02-07T08:09:00Z,26.2168,-96.4998,4.0,11.04356826,5.090869457,15.79,'11111222,11111222,11111222' 
TABS,ioos:station:wmo:42045:1,2006-02-07T08:39:00Z,26.2168,-96.4998,4.0,10.52213857,6.712791806,16.1,'11111222,11111222,11111222' 
TABS,ioos:station:wmo:42045:1,2006-02-07T09:09:00Z,26.2168,-96.4998,4.0,12.25709998,13.0609458,18.93,'11111222,11111222,11111222' 
TABS,ioos:station:wmo:42045:1,2006-02-07T09:39:00Z,26.2168,-96.4998,4.0,10.39708613,4.136437896,15.93,'11111222,11111222,11111222' 
TABS,ioos:station:wmo:42045:1,2006-02-07T10:09:00Z,26.2168,-96.4998,4.0,12.23485595,18.39026856,18.67,'11111222,11111222,11111222' 
TABS,ioos:station:wmo:42045:1,2006-02-07T10:39:00Z,26.2168,-96.4998,4.0,12.12308954,17.37350933,17.49,'11111222,11111222,11111222' 
TABS,ioos:station:wmo:42045:1,2006-02-07T11:09:00Z,26.2168,-96.4998,4.0,11.84486387,20.14815657,17.98,'11111222,11111222,11111222' 
TABS,ioos:station:wmo:42045:1,2006-02-07T11:39:00Z,26.2168,-96.4998,4.0,12.32389955,24.54757412,17.54,'11111222,11111222,11111222' 
TABS,ioos:station:wmo:42045:1,2006-02-07T12:09:00Z,26.2168,-96.4998,4.0,11.79705896,28.06364005,17.36,'11111222,11111222,11111222' 
TABS,ioos:station:wmo:42045:1,2006-02-07T12:39:00Z,26.2168,-96.4998,4.0,11.51166799,29.79398875,18.46,'11111222,11111222,11111222' 
TABS,ioos:station:wmo:42045:1,2006-02-07T13:09:00Z,26.2168,-96.4998,4.0,11.06273022,32.5980175,15.94,'11111222,11111222,11111222' 
TABS,ioos:station:wmo:42045:1,2006-02-07T13:39:00Z,26.2168,-96.4998,4.0,11.20503458,22.12399049,17.85,'11111222,11111222,11111222' 
TABS,ioos:station:wmo:42045:1,2006-02-07T14:09:00Z,26.2168,-96.4998,4.0,10.8564543,23.04587041,15.09,'11111222,11111222,11111222' 
TABS,ioos:station:wmo:42045:1,2006-02-07T14:39:00Z,26.2168,-96.4998,4.0,10.64975587,30.03154423,15.79,'11111222,11111222,11111222' 
TABS,ioos:station:wmo:42045:1,2006-02-07T15:09:00Z,26.2168,-96.4998,4.0,10.34342787,29.41480627,17.34,'11111222,11111222,11111222' 
TABS,ioos:station:wmo:42045:1,2006-02-07T15:39:00Z,26.2168,-96.4998,4.0,7.917758521,24.23407718,12.54,'11111222,11111222,11111222' 
TABS,ioos:station:wmo:42045:1,2006-02-07T16:09:00Z,26.2168,-96.4998,4.0,7.855246654,21.27290529,11.59,'11111222,11111222,11111222' 
TABS,ioos:station:wmo:42045:1,2006-02-07T16:39:00Z,26.2168,-96.4998,4.0,9.064480129,29.61915946,14.29,'11111222,11111222,11111222' 
TABS,ioos:station:wmo:42045:1,2006-02-07T17:09:00Z,26.2168,-96.4998,4.0,9.391272544,30.87976935,13.52,'11111222,11111222,11111222' 
TABS,ioos:station:wmo:42045:1,2006-02-07T17:39:00Z,26.2168,-96.4998,4.0,9.188710464,25.1145657,14.41,'11111222,11111222,11111222' 
TABS,ioos:station:wmo:42045:1,2006-02-07T18:09:00Z,26.2168,-96.4998,4.0,7.310437743,15.63294273,11.85,'11111222,11111222,11111222' 
TABS,ioos:station:wmo:42045:1,2006-02-07T18:39:00Z,26.2168,-96.4998,4.0,7.626912875,7.003656966,11.23,'11111222,11111222,11111222' 
TABS,ioos:station:wmo:42045:1,2006-02-07T19:09:00Z,26.2168,-96.4998,4.0,7.508728255,10.20223743,12.45,'11111222,11111222,11111222' 
TABS,ioos:station:wmo:42045:1,2006-02-07T19:39:00Z,26.2168,-96.4998,4.0,7.524925249,17.15845861,10.47,'11111222,11111222,11111222' 
TABS,ioos:station:wmo:42045:1,2006-02-07T20:09:00Z,26.2168,-96.4998,4.0,8.62123541,30.99766641,12.51,'11111222,11111222,11111222' 
TABS,ioos:station:wmo:42045:1,2006-02-07T20:39:00Z,26.2168,-96.4998,4.0,6.292002861,16.90832482,10.87,'11111222,11111222,11111222' 
TABS,ioos:station:wmo:42045:1,2006-02-07T21:09:00Z,26.2168,-96.4998,4.0,5.91067678,15.70547453,9.67,'11111222,11111222,11111222' 
TABS,ioos:station:wmo:42045:1,2006-02-07T21:39:00Z,26.2168,-96.4998,4.0,7.122506581,34.06906635,11.59,'11111222,11111222,11111222' 
TABS,ioos:station:wmo:42045:1,2006-02-07T22:09:00Z,26.2168,-96.4998,4.0,5.488934323,15.85911872,8.86,'11111222,11111222,11111222' 
TABS,ioos:station:wmo:42045:1,2006-02-07T22:39:00Z,26.2168,-96.4998,4.0,5.210038388,26.5647786,8.43,'11111222,11111222,11111222' 
TABS,ioos:station:wmo:42045:1,2006-02-07T23:09:00Z,26.2168,-96.4998,4.0,4.673467663,34.09781159,7.66,'11111222,11111222,11111222' 
TABS,ioos:station:wmo:42045:1,2006-02-07T23:39:00Z,26.2168,-96.4998,4.0,4.462869032,41.54793848,8.32,'11111222,11111222,11111222' 
TABS,ioos:station:wmo:42045:1,2006-02-08T00:09:00Z,26.2168,-96.4998,4.0,3.872002066,36.81041127,8.22,'11111222,11111222,11111222' 
TABS,ioos:station:wmo:42045:1,2006-02-08T00:39:00Z,26.2168,-96.4998,4.0,3.399088113,35.41981467,6.69,'11111222,11111222,11111222' 
TABS,ioos:station:wmo:42045:1,2006-02-08T01:09:00Z,26.2168,-96.4998,4.0,3.525478691,47.75878552,8.31,'11111222,11111222,11111222' 
TABS,ioos:station:wmo:42045:1,2006-02-08T01:39:00Z,26.2168,-96.4998,4.0,5.43401325,57.24542373,8.36,'11111222,11111222,11111222' 
TABS,ioos:station:wmo:42045:1,2006-02-08T02:09:00Z,26.2168,-96.4998,4.0,3.170425839,50.88827929,7.14,'11111222,11111222,11111222' 
TABS,ioos:station:wmo:42045:1,2006-02-08T02:39:00Z,26.2168,-96.4998,4.0,4.965017623,76.60711265,7.54,'11111222,11111222,11111222' 
TABS,ioos:station:wmo:42045:1,2006-02-08T03:09:00Z,26.2168,-96.4998,4.0,2.889238654,81.84145088,7.23,'11111222,11111222,11111222' 
TABS,ioos:station:wmo:42045:1,2006-02-08T03:39:00Z,26.2168,-96.4998,4.0,2.419194081,71.93914938,5.04,'11111222,11111222,11111222' 
TABS,ioos:station:wmo:42045:1,2006-02-08T04:09:00Z,26.2168,-96.4998,4.0,3.015725452,57.73246467,5.62,'11111222,11111222,11111222' 
TABS,ioos:station:wmo:42045:1,2006-02-08T04:39:00Z,26.2168,-96.4998,4.0,2.076174366,48.70990685,4.71,'11111222,11111222,11111222' 
TABS,ioos:station:wmo:42045:1,2006-02-08T05:09:00Z,26.2168,-96.4998,4.0,2.104400152,73.71763112,5.27,'11111222,11111222,11111222' 
TABS,ioos:station:wmo:42045:1,2006-02-08T05:39:00Z,26.2168,-96.4998,4.0,2.530494023,88.86740146,4.94,'11111222,11111222,11111222' 
TABS,ioos:station:wmo:42045:1,2006-02-08T06:09:00Z,26.2168,-96.4998,4.0,3.03644529,72.75816,5.43,'11111222,11111222,11111222' 
TABS,ioos:station:wmo:42045:1,2006-02-08T06:39:00Z,26.2168,-96.4998,4.0,1.858413302,122.9208129,3.73,'11111222,11111222,11111222' 
TABS,ioos:station:wmo:42045:1,2006-02-08T07:09:00Z,26.2168,-96.4998,4.0,2.956010825,81.04712668,5.63,'11111222,11111222,11111222' 
TABS,ioos:station:wmo:42045:1,2006-02-08T07:39:00Z,26.2168,-96.4998,4.0,2.147300631,109.0259825,4.47,'11111222,11111222,11111222' 
TABS,ioos:station:wmo:42045:1,2006-02-08T08:09:00Z,26.2168,-96.4998,4.0,1.688075828,103.7073499,3.9,'11111222,11111222,11111222' 
TABS,ioos:station:wmo:42045:1,2006-02-08T08:39:00Z,26.2168,-96.4998,4.0,2.076174366,104.5051603,4.61,'11111222,11111222,11111222' 
TABS,ioos:station:wmo:42045:1,2006-02-08T09:09:00Z,26.2168,-96.4998,4.0,1.360147051,109.7675434,3.59,'11111222,11111222,11111222' 
TABS,ioos:station:wmo:42045:1,2006-02-08T09:39:00Z,26.2168,-96.4998,4.0,1.636001222,94.90947158,4.14,'11111222,11111222,11111222' 
TABS,ioos:station:wmo:42045:1,2006-02-08T10:09:00Z,26.2168,-96.4998,4.0,3.0329029,107.6586866,6.26,'11111222,11111222,11111222' 
TABS,ioos:station:wmo:42045:1,2006-02-08T10:39:00Z,26.2168,-96.4998,4.0,2.447897057,109.32356,4.4,'11111222,11111222,11111222' 
TABS,ioos:station:wmo:42045:1,2006-02-08T11:09:00Z,26.2168,-96.4998,4.0,1.392910622,119.6942125,3.99,'11111222,11111222,11111222' 
TABS,ioos:station:wmo:42045:1,2006-02-08T11:39:00Z,26.2168,-96.4998,4.0,2.210203611,105.4828664,5.4,'11111222,11111222,11111222' 
TABS,ioos:station:wmo:42045:1,2006-02-08T12:09:00Z,26.2168,-96.4998,4.0,1.51109232,76.60711265,4.11,'11111222,11111222,11111222' 
TABS,ioos:station:wmo:42045:1,2006-02-08T12:39:00Z,26.2168,-96.4998,4.0,1.966519769,94.66726838,4.1,'11111222,11111222,11111222' 
TABS,ioos:station:wmo:42045:1,2006-02-08T13:09:00Z,26.2168,-96.4998,4.0,1.486001346,126.7931185,3.92,'11111222,11111222,11111222' 
TABS,ioos:station:wmo:42045:1,2006-02-08T13:39:00Z,26.2168,-96.4998,4.0,2.496116984,74.90555155,4.86,'11111222,11111222,11111222' 